Regional Weather Roundup
Issued by NWS

Home | Current Version | Previous Version | Text Only | Print | Product List | Glossary On
Versions: 1 2 3 4 5 6 7 8 9 10 11 12 13 14 15 16 17 18 19 20 21 22 23 24 25 26 27 28 29 30 31 32 33 34 35 36 37 38 39 40 41 42 43 44 45 46 47 48 49 50
720
ASUS43 KMPX 250301
RWRMN
WEATHER ROUNDUP FOR MINNESOTA
NATIONAL WEATHER SERVICE TWIN CITIES/CHANHASSEN MN
1000 PM CDT THU MAY 24 2018


NOTE: "FAIR" INDICATES FEW OR NO CLOUDS BELOW 12,000 FEET WITH NO
SIGNIFICANT WEATHER AND/OR OBSTRUCTIONS TO VISIBILITY. N/A MEANS
CURRENT SKY AND/OR WEATHER CONDITIONS ARE NOT AVAILABLE.

MNZ060>063-068>070-250400-
   Twin Cities Metro

CITY           SKY/WX    TMP DP  RH WIND       PRES   REMARKS
TWIN CITIES    CLOUDY    70  66  87 SE14      29.89F
ST PAUL        MOCLDY    68  64  87 SE8       29.91R
CRYSTAL        FAIR      70  63  78 SE8G21    29.87R
BLAINE         CLOUDY    72  64  78 SE9       29.89R
LAKEVILLE      FAIR      68  64  88 E8        29.90S
EDEN PRAIRIE   MOCLDY    69  64  84 E12       29.88R
SOUTH ST PAUL  FAIR      67  67  99 SE5       29.91F
LAKE ELMO      CLOUDY    68  64  88 SE10      29.94R
$$
MNZ001>005-007-008-013>017-022>024-027-028-250400-
   Northwest Minnesota

CITY           SKY/WX    TMP DP  RH WIND       PRES   REMARKS
BEMIDJI        FAIR      69  63  81 SE6       29.75F
HALLOCK        FAIR      77  55  47 SW9       29.63R
ROSEAU         FAIR      75  63  64 SE13      29.66F
WARROAD        FAIR      73  66  78 SE12      29.67F
THIEF RVR FALL HVY RAIN  74  64  71 S23G29    29.70S
CROOKSTON      FAIR      77  63  61 SW12      29.68R
FOSSTON        FAIR      75  55  50 SE8       29.73S
DETROIT LAKES  FAIR      75  59  57 S7        29.77S
MOORHEAD       FAIR      81  61  50 S8G16     29.71S
PARK RAPIDS    FAIR      80  60  50 S13G23    29.77S
MAHNOMEN       FAIR      77  60  56 S14       29.72F
$$
MNZ006-009>011-018-025>026-250400-
   North Central Minnesota

CITY           SKY/WX    TMP DP  RH WIND       PRES   REMARKS
BAUDETTE       FAIR      73  66  78 SE10      29.71F
FLAG ISLAND    FAIR      64  61  88 S7        29.67F
INTL FALLS     FAIR      66  64  93 SE6       29.75F
WASKISH          N/A     72  66  83 CALM      29.74F
BIG FORK       FAIR      68  66  94 CALM      29.78F
LONGVILLE      FAIR      75  63  64 S8        29.79S
GRAND RAPIDS   FAIR      69  66  90 S6        29.81F
CRANE LAKE     FOG       61  61 100 CALM      29.80F VSB 1/2
ORR            FAIR      64  61  88 SE3       29.77F
COOK           FOG       64  64 100 CALM      29.80F VSB 3/4
WALKER         FAIR      73  58  60 CALM      29.77S
$$
MNZ012-019>021-037-250400-
   Northeast Minnesota

CITY           SKY/WX    TMP DP  RH WIND       PRES   REMARKS
DULUTH         FAIR      62  60  93 SE5       29.83F
ELY            FAIR      66  64  94 CALM      29.82F
HIBBING        FAIR      68  65  90 SE5       29.80F
EVELETH        FAIR      70  64  83 CALM      29.83S
DULUTH HARBOR  FOG       50  48  93 NE7       29.84F VSB 3/4
TWO HARBORS    FAIR      63  57  82 CALM      29.82S
SILVER BAY     FAIR      61  61 100 CALM      29.83S
G MARAIS ARPRT FAIR      63  57  82 SE3       29.90S
$$
MNZ029>031-032-039>041-046>048-054>057-064-250400-
   West Central Minnesota

CITY           SKY/WX    TMP DP  RH WIND       PRES   REMARKS
FERGUS FALLS   FAIR      77  61  57 SE13      29.72R
WHEATON        CLOUDY    81  61  50 S7        29.78R
MORRIS         MOCLDY    73  64  73 E9        29.80R
ALEXANDRIA     FAIR      70  61  73 VRB3      29.84S
ELBOW LAKE     MOCLDY    73  62  67 E13G20    29.80R
WADENA         FAIR      72  63  73 S16G22    29.80S
GLENWOOD       FAIR      64  63  94 E3          N/A
APPLETON       PTCLDY    81  57  44 SW8       29.80R
BENSON         CLOUDY    73  64  73 S8        29.82S
ORTONVILLE     PTCLDY    75  63  64 CALM      29.80R
MADISON        CLOUDY    79  61  53 SW9       29.82R
WILLMAR        FAIR      70  64  83 SE5       29.86R
$$
MNZ033>034-036-042>043-049>051-058-059-250400-
   Central Minnesota

CITY           SKY/WX    TMP DP  RH WIND       PRES   REMARKS
ST CLOUD       FAIR      71  57  61 S5        29.84R
SAUK CENTRE    FAIR      68  61  78 S7        29.84F
PAYNESVILLE    FAIR      71  61  71 NE3       29.85R
PINE RIVER     FAIR      75  63  64 S10       29.83S
BRAINERD       FAIR      79  64  60 SW20G33   29.83R
STAPLES        DRIZZLE   73  57  56 SW7       29.81S
LONG PRAIRIE   FAIR      68  59  73 NE7       29.83F
LITTLE FALLS   LGT RAIN  68  61  77 S8        29.85R
LITCHFIELD     FAIR      72  64  78 SE5       29.86R
BUFFALO        MOCLDY    69  59  69 SE9       29.88R
MAPLE LAKE     FAIR      72  60  67 S3        29.87R
HUTCHINSON     FAIR      68  65  89 E5        29.86S
$$
MNZ037-044-045-052-053-250400-
   East Central Minnesota

CITY           SKY/WX    TMP DP  RH WIND       PRES   REMARKS
PRINCETON      FAIR      70  61  73 S7        29.85R
MORA           FAIR      72  61  68 S6        29.85R
CAMBRIDGE      FAIR      72  59  64 S8        29.86R
RUSH CITY      FAIR      71  60  68 S6        29.86R
MOOSE LAKE     MOCLDY    64  63  94 CALM      29.81S
HINCKLEY       FAIR      73  63  68 SW5       29.83R
CLOQUET        FAIR      61  57  88 CALM      29.84R
MCGREGOR       FAIR      73  63  68 S6        29.82R
$$
MNZ071>073-080-081-089-090-097-098-250400-
   Southwest Minnesota

CITY           SKY/WX    TMP DP  RH WIND       PRES   REMARKS
MONTEVIDEO     MOCLDY    75  63  64 SW5       29.82R
CANBY          MOCLDY    79  61  53 SW9       29.84R
MARSHALL       CLOUDY    77  61  57 W5        29.83R
REDWOOD FALLS  CLOUDY    77  61  57 S8        29.81F
OLIVIA         MOCLDY    72  63  73 SW7       29.83R
PIPESTONE      PTCLDY    70  55  60 SW7       29.86R
WINDOM         LGT RAIN  79  52  38 S9G23     29.85F
WORTHINGTON    MOCLDY    69  59  70 S9        29.88R
JACKSON        MOCLDY    73  55  53 SE10      29.90S
TRACY          CLOUDY    77  60  55 SW14      29.83R
SLAYTON        CLOUDY    74  59  59 S12       29.85F
$$
MNZ065>067-074>077-082>085-091>093-250400-
   South Central Minnesota

CITY           SKY/WX    TMP DP  RH WIND       PRES   REMARKS
MANKATO        MOCLDY    74  63  68 SE8       29.89R
NEW ULM        CLOUDY    77  57  50 S5        29.86R
ST JAMES       PTCLDY    75  63  64 S20G26    29.89R
FAIRMONT       CLOUDY    75  60  59 S22       29.89F
GLENCOE        FAIR      71  69  93 E7        29.86R
FARIBAULT      MOCLDY    66  66 100 CALM      29.91F
OWATONNA       MOCLDY    73  64  73 N5        29.92R
WASECA         FAIR      77  63  61 S21G28    29.93R
ALBERT LEA     MOCLDY    79  57  47 SW14G24   29.95R
$$
MNZ078>079-086>088-094>096-250400-
   Southeast Minnesota

CITY           SKY/WX    TMP DP  RH WIND       PRES   REMARKS
ROCHESTER      FAIR      77  60  55 S13       29.94R
RED WING       TSTM      68  63  83 E8        29.93F
STANTON        CLOUDY    69  65  87 E13       29.91R
DODGE CENTER   LGT RAIN  75  61  60 S10       29.94R
WINONA         FAIR      77  61  57 CALM      29.93R
AUSTIN         FAIR      75  61  60 S8        29.94R
PRESTON        FAIR      76  58  54 S10       29.96S
$$
ABBREVIATIONS USED IN REMARKS
   TC - TEMPERATURES IN CELSIUS
  WCI - WIND CHILL INDEX
   HX - HEAT INDEX
  VSB - VISIBILITY
$$




USA.gov is the U.S. government's official web portal to all federal, state and local government web resources and services.